EW9827 Weather Reports


time (UTC)temp
C
wind
direction
speed
KPH
gust
KPH
rain 1hr
cm
rain 24hr
cm
rain mn
cm
humidity
%
barometer
mb
20260507184523 11 94 9.7 22.5 0.00 0.00 0.00 48 1011.7
20260507183022 12 94 9.7 22.5 0.00 0.00 0.00 48 1011.8
20260507181519 11 94 9.7 20.9 0.00 0.00 0.00 50 1011.9
20260507180036 11 94 9.7 27.4 0.00 0.00 0.00 50 1011.9
20260507174520 12 94 1.6 20.9 0.00 0.00 0.00 48 1012.0
20260507173023 11 94 9.7 16.1 0.00 0.00 0.00 48 1012.2
20260507171512 10 94 8.0 22.5 0.00 0.00 0.00 54 1012.5
20260507170030 10 94 8.0 20.9 0.00 0.00 0.00 51 1012.6
20260507164512 10 94 9.7 19.3 0.00 0.00 0.00 51 1012.8
20260507163010 11 94 4.8 20.9 0.00 0.00 0.00 54 1012.9
20260507161544 10 94 4.8 17.7 0.00 0.00 0.00 55 1013.0
20260507160038 10 94 6.4 24.1 0.00 0.00 0.00 49 1013.1
20260507154534 10 94 4.8 17.7 0.00 0.00 0.00 60 1013.2
20260507153032 10 94 3.2 19.3 0.00 0.00 0.00 52 1013.5
20260507151529 9 94 3.2 12.9 0.00 0.03 0.00 55 1013.7
20260507150028 9 94 3.2 11.3 0.00 0.03 0.00 60 1013.7
20260507143106 9 94 12.9 20.9 0.00 0.03 0.00 64 1014.0
20260507141557 9 94 3.2 11.3 0.00 0.10 0.00 60 1014.2
20260507140051 8 94 3.2 11.3 0.00 0.10 0.00 62 1014.4
20260507134547 7 94 4.8 17.7 0.00 0.10 0.00 63 1014.4
20260507133048 7 94 3.2 14.5 0.00 0.10 0.00 63 1014.3
20260507131549 6 94 0.0 11.3 0.00 0.18 0.00 65 1014.2
20260507130057 5 94 4.8 11.3 0.00 0.18 0.00 71 1014.3
20260507124541 4 94 1.6 6.4 0.00 0.18 0.00 76 1014.3
20260507123040 3 94 1.6 6.4 0.00 0.18 0.00 82 1014.4
20260507121539 2 94 1.6 4.8 0.00 0.38 0.00 84 1014.1
20260507120037 1 94 0.0 0.0 0.00 0.38 0.00 87 1014.2
20260507114536 1 94 0.0 0.0 0.00 0.38 0.00 88 1014.1
20260507113035 0 94 0.0 0.0 0.00 0.38 0.00 90 1014.1
20260507111534 0 94 0.0 0.0 0.00 0.56 0.00 91 1013.9
20260507110005 0 94 0.0 0.0 0.00 0.56 0.00 92 1013.9
20260507104505 0 94 0.0 0.0 0.00 0.56 0.00 91 1013.7
20260507103046 0 94 0.0 0.0 0.00 0.56 0.00 90 1013.6
20260507101535 0 94 0.0 0.0 0.00 0.79 0.00 90 1013.5
20260507100030 0 94 0.0 0.0 0.00 0.79 0.00 90 1013.4
20260507094531 0 94 0.0 0.0 0.00 0.79 0.00 86 1013.4
20260507093028 0 94 0.0 3.2 0.00 0.79 0.00 88 1013.3
20260507091536 0 94 0.0 1.6 0.00 0.89 0.00 89 1013.4
20260507090024 0 94 0.0 3.2 0.00 0.89 0.00 88 1013.3
20260507084536 0 94 0.0 1.6 0.00 0.89 0.00 87 1013.2
20260507083018 0 94 0.0 1.6 0.00 0.89 0.00 87 1013.4
20260507081517 1 94 0.0 1.6 0.00 1.09 0.00 87 1013.5
20260507080013 1 94 0.0 1.6 0.00 1.09 0.00 86 1013.4
20260507074512 1 94 0.0 1.6 0.00 1.09 0.00 86 1013.4
20260507073012 1 94 0.0 1.6 0.00 1.09 0.00 86 1013.2
20260507071509 1 94 0.0 3.2 0.00 1.32 0.00 85 1013.2
20260507070055 1 94 0.0 3.2 0.00 1.32 0.00 84 1013.2
20260507064541 1 94 0.0 4.8 0.00 1.32 0.00 84 1013.4
20260507063004 2 94 1.6 4.8 0.00 1.32 0.00 82 1013.4
20260507061559 3 94 1.6 4.8 0.00 1.37 0.00 80 1013.4
20260507060101 3 94 4.8 9.7 0.00 1.37 0.00 78 1013.7
20260507054610 3 94 4.8 9.7 0.00 1.37 0.00 76 1013.7
20260507053103 3 94 3.2 9.7 0.00 1.37 0.00 77 1013.7
20260507051556 3 94 3.2 6.4 0.00 1.37 0.00 75 1013.7
20260507050051 3 94 3.2 9.7 0.00 1.37 0.00 76 1013.8
20260507044553 3 94 3.2 9.7 0.00 1.37 0.00 76 1014.0
20260507043043 3 94 3.2 11.3 0.00 1.37 0.00 76 1013.7
20260507041552 4 94 4.8 14.5 0.00 1.37 0.00 74 1013.6
20260507040041 4 94 4.8 12.9 0.00 1.37 0.00 74 1013.4
20260507034538 4 94 6.4 12.9 0.00 1.37 0.00 74 1013.4
20260507033033 4 94 6.4 12.9 0.00 1.37 0.00 74 1013.6
20260507031532 4 94 3.2 9.7 0.00 1.37 0.00 74 1013.5
20260507030026 4 94 0.0 6.4 0.00 1.37 0.00 75 1013.3
20260507024532 4 94 1.6 6.4 0.00 1.37 0.00 73 1013.2
20260507023025 4 94 1.6 0.0 0.00 0.00 0.00 74 1013.2
20260507021530 4 94 1.6 6.4 0.00 1.37 0.00 74 1013.0
20260507020020 5 94 1.6 8.0 0.00 1.37 0.00 72 1013.3
20260507014518 5 94 3.2 11.3 0.00 1.37 0.00 73 1013.2
20260507013015 5 94 1.6 8.0 0.00 1.37 0.00 73 1013.3
20260507011521 5 94 3.2 9.7 0.00 1.37 0.00 72 1013.5
20260507010018 5 94 1.6 9.7 0.00 1.37 0.00 73 1013.3
20260507004508 5 94 4.8 16.1 0.00 1.37 0.00 70 1013.2
20260507003007 5 94 4.8 9.7 0.00 1.37 0.00 71 1013.3
20260507001505 5 94 4.8 9.7 0.00 1.37 0.00 70 1013.1
20260507000002 6 94 8.0 22.5 0.00 1.37 0.00 68 1012.6
20260506234618 6 94 9.7 17.7 0.00 1.37 0.00 68 1012.5
20260506233053 6 94 6.4 22.5 0.00 1.37 0.00 68 1011.9
20260506231549 7 94 8.0 24.1 0.00 1.37 0.00 72 1011.5
20260506230145 7 94 4.8 9.7 0.00 1.37 0.00 83 1011.6
20260506224541 7 94 4.8 12.9 0.00 1.37 0.00 83 1011.2
20260506223040 7 94 3.2 9.7 0.00 1.37 0.00 85 1011.2
20260506221550 7 94 3.2 8.0 0.00 1.37 0.00 87 1011.1
20260506220044 7 94 1.6 8.0 0.00 1.37 0.00 88 1011.1
20260506214534 7 94 3.2 9.7 0.00 1.37 0.00 89 1010.8
20260506213040 7 94 3.2 11.3 0.00 1.37 0.00 88 1010.4
20260506211540 7 94 3.2 8.0 0.00 1.37 0.00 88 1010.2
20260506210039 7 94 3.2 11.3 0.00 1.37 0.00 88 1010.2
20260506204532 7 94 6.4 14.5 0.00 1.37 0.00 88 1010.3
20260506203024 7 94 6.4 14.5 0.00 1.37 0.00 89 1010.2
20260506201527 7 94 8.0 20.9 0.00 1.37 0.00 88 1010.0
20260506200021 7 94 4.8 17.7 0.00 1.37 0.00 90 1009.8
20260506194517 7 94 8.0 17.7 0.00 1.37 0.00 91 1009.7
20260506193015 8 94 8.0 19.3 0.00 1.37 0.00 91 1009.3
20260506191611 8 94 9.7 20.9 0.00 1.37 1.37 91 1009.3
20260506190010 8 94 4.8 12.9 0.00 1.37 1.37 92 1009.2